x

Ilm3 - 27 Miles Se Of Wrightsville Beach, Nc (41037) Weather Station

7:08am - Sat 25th Mar 2017 All times are EDT. -4 hours from GMT.

  • Wind
    4mph, 9mph gusts
  • Sea Temp 62°f
  • Air Temp 63°f
  • Sea Pressure 1025.7mb
  • Ilm3 - 27 Miles Se Of Wrightsville Beach, Nc
  • Ilm3 - 27 Miles Se Of Wrightsville Beach, Nc

More Historic Weather Station data

Upgrade to MSW Pro to gain access to the past 30 days of data for over 8000 Wavebouys and Weather Stations around the globe.

Join Pro

Comparision Forecast

View Surf forecast
   
Sat 03/25 7:08am 4 9 mph 1025.7mb 62f 63f
6:08am 4 9 mph 1026.2mb 62f 63f
5:08am 4 7 mph 1026.6mb 62f 63f
4:08am 7 9 mph 1026.8mb 62f 63f
3:08am 7 9 mph 1027.3mb 62f 63f
2:08am 9 11 mph 1027.6mb 62f 64f
1:08am 11 16 mph 1028.1mb 62f 64f
12:08am 7 11 mph 1028.7mb 62f 64f
Fri 03/24 11:08pm 9 11 mph 1028.5mb 62f 64f
10:08pm 7 11 mph 1028.6mb 62f 64f
9:08pm 7 11 mph 1028.4mb 62f 64f
8:08pm 7 11 mph 1029.1mb 62f 64f
7:08pm 7 11 mph 1028.7mb 62f 65f
6:08pm 7 11 mph 1029mb 62f 65f
5:08pm 9 13 mph 1029.2mb 62f 65f
4:08pm 11 16 mph 1029.8mb 63f 65f
3:08pm 7 11 mph 1030.9mb 63f 65f
2:08pm 9 11 mph 1031.7mb 63f 64f
1:08pm 9 11 mph 1032.4mb 62f 64f
12:08pm 7 9 mph 1032.6mb 62f 64f
11:08am 9 13 mph 1032.7mb 62f 64f
10:08am 7 11 mph 1033.2mb 62f 64f
9:08am 7 11 mph 1032.6mb 62f 63f
8:08am 9 13 mph 1032.3mb 62f 63f
7:08am 11 16 mph 1031.9mb 62f 62f
6:08am 9 13 mph 1031.9mb 62f 61f
5:08am 13 20 mph 1031.5mb 62f 58f
4:08am 13 20 mph 1031.9mb 62f 59f
3:08am 11 16 mph 1031.7mb 62f 59f
2:08am 13 20 mph 1032.1mb 62f 58f
1:08am 13 20 mph 1032.7mb 62f 57f
12:08am 13 18 mph 1033.1mb 62f 56f
Thu 03/23 11:08pm 16 25 mph 1032.9mb 62f 55f
10:08pm 16 22 mph 1033.3mb 61f 53f
9:08pm 16 22 mph 1033.2mb 61f 52f
8:08pm 18 25 mph 1033.3mb 61f 51f
7:08pm 16 25 mph 1034.1mb 62f 50f
6:08pm 18 27 mph 1033.7mb 62f 50f
5:08pm 18 27 mph 1033.2mb 62f 50f
4:08pm 18 25 mph 1033.3mb 62f 49f
3:08pm 18 27 mph 1033.6mb 62f 49f
2:08pm 20 27 mph 1034.3mb 62f 49f
1:08pm 20 29 mph 1034.2mb 62f 49f
12:08pm 22 31 mph 1034.1mb 62f 49f
11:08am 22 34 mph 1033.8mb 62f 49f
10:08am 22 34 mph 1033.3mb 62f 49f
9:08am 22 31 mph 1032.6mb 62f 49f
8:08am 22 31 mph 1031.4mb 62f 50f
7:08am 22 29 mph 1030.3mb 62f 50f
6:08am 22 31 mph 1029.2mb 62f 50f
5:08am 20 31 mph 1028.7mb 62f 50f
4:08am 22 31 mph 1028.6mb 62f 51f
3:08am 25 34 mph 1028.5mb 63f 51f
2:08am 25 36 mph 1028.5mb 62f 52f
1:08am 25 38 mph 1028.1mb 63f 52f
12:08am 25 34 mph 1027.3mb 63f 53f
Wed 03/22 11:08pm 25 34 mph 1027.2mb 63f 53f
10:08pm 25 36 mph 1026.7mb 63f 53f
9:08pm 25 36 mph 1025mb 64f 54f
8:08pm 25 36 mph 1023.5mb 64f 55f
7:08pm 25 36 mph 1022.2mb 64f 55f
6:08pm 22 29 mph 1021.6mb 64f 57f
5:08pm 22 34 mph 1020.8mb 64f 57f
4:08pm 20 29 mph 1019.4mb 64f 58f
3:08pm 20 27 mph 1018.5mb 64f 60f
2:08pm 18 27 mph 1018.9mb 64f 59f
1:08pm 20 27 mph 1018.4mb 64f 59f
12:08pm 20 29 mph 1017.3mb 64f 59f
11:08am 22 31 mph 1016.2mb 64f 57f
10:08am 22 34 mph 1015.2mb 64f 57f
9:08am 13 20 mph 1014.2mb 64f 60f
8:08am 9 16 mph 1013.1mb 64f 60f
7:08am 13 20 mph 1011.6mb 64f 60f
6:08am 11 16 mph 1009.7mb 64f 61f
5:08am 11 18 mph 1008.9mb 64f 62f
4:08am 13 20 mph 1011.3mb 64f 63f
3:08am 25 36 mph 1010.3mb 64f 65f
2:08am 22 31 mph 1010.1mb 64f 65f
1:08am 18 25 mph 1010.5mb 64f 67f
12:08am 16 22 mph 1011.4mb 64f 66f
Tue 03/21 11:08pm 13 20 mph 1012.4mb 63f 65f
10:08pm 13 18 mph 1012.9mb 63f 64f
9:08pm 16 22 mph 1012.5mb 63f 64f
8:08pm 16 22 mph 1012mb 63f 64f
7:08pm 16 22 mph 1011.7mb 63f 64f
6:08pm 16 22 mph 1012.1mb 63f 64f
5:08pm 18 25 mph 1012.8mb 63f 64f
4:08pm 18 25 mph 1013mb 63f 63f
3:08pm 18 25 mph 1012.8mb 63f 63f
2:08pm 16 22 mph 1013.5mb 63f 63f
1:08pm 13 22 mph 1014.3mb 63f 63f